| time (UTC) | temp F | wind direction | speed MPH | gust MPH | rain 1hr in | rain 24hr in | rain mn in | humidity % | barometer mb |
| 20260901150605 | 74 | 337 | 1.0 | 5.0 | 0.00 | 0.00 | 0.00 | 76 | 1012.5 |
| 20260901150100 | 74 | 227 | 1.0 | 5.0 | 0.00 | 0.00 | 0.00 | 77 | 1012.5 |
| 20260901145539 | 74 | 246 | 1.0 | 4.0 | 0.00 | 0.00 | 0.00 | 77 | 1012.5 |
| 20260901145037 | 74 | 236 | 1.0 | 4.0 | 0.00 | 0.00 | 0.00 | 77 | 1012.5 |
| 20260901144531 | 73 | 319 | 0.0 | 3.0 | 0.00 | 0.00 | 0.00 | 78 | 1012.4 |
| 20260901144026 | 73 | 327 | 1.0 | 6.0 | 0.00 | 0.00 | 0.00 | 78 | 1012.4 |
| 20260901143509 | 73 | 330 | 2.0 | 6.0 | 0.00 | 0.00 | 0.00 | 79 | 1012.5 |
| 20260901143004 | 72 | 330 | 1.0 | 5.0 | 0.00 | 0.00 | 0.00 | 81 | 1012.4 |
| 20260901142504 | 71 | 329 | 1.0 | 3.0 | 0.00 | 0.00 | 0.00 | 83 | 1012.4 |
| 20260901141953 | 71 | 314 | 1.0 | 3.0 | 0.00 | 0.00 | 0.00 | 84 | 1012.5 |
| 20260901141936 | 71 | 263 | 1.0 | 3.0 | 0.00 | 0.00 | 0.00 | 86 | 1012.4 |
| 20260901140954 | 70 | 281 | 0.0 | 4.0 | 0.00 | 0.00 | 0.00 | 87 | 1012.4 |
| 20260901140450 | 70 | 281 | 1.0 | 7.0 | 0.00 | 0.00 | 0.00 | 87 | 1012.4 |
| 20260901135947 | 69 | 261 | 1.0 | 7.0 | 0.00 | 0.00 | 0.00 | 88 | 1012.5 |
| 20260901135441 | 69 | 255 | 1.0 | 5.0 | 0.00 | 0.00 | 0.00 | 89 | 1012.5 |
| 20260901134946 | 68 | 226 | 2.0 | 6.0 | 0.00 | 0.00 | 0.00 | 91 | 1012.6 |
| 20260901134436 | 68 | 197 | 2.0 | 6.0 | 0.00 | 0.00 | 0.00 | 93 | 1012.6 |
| 20260901133936 | 67 | 219 | 2.0 | 6.0 | 0.00 | 0.00 | 0.00 | 95 | 1012.6 |
| 20260901133432 | 67 | 246 | 2.0 | 5.0 | 0.00 | 0.00 | 0.00 | 95 | 1012.5 |
| 20260901132922 | 66 | 231 | 1.0 | 4.0 | 0.00 | 0.00 | 0.00 | 95 | 1012.4 |
| 20260901132422 | 66 | 221 | 1.0 | 4.0 | 0.00 | 0.00 | 0.00 | 95 | 1012.4 |
| 20260901131908 | 65 | 218 | 1.0 | 3.0 | 0.00 | 0.00 | 0.00 | 96 | 1012.2 |
| 20260901131409 | 65 | 217 | 1.0 | 3.0 | 0.00 | 0.00 | 0.00 | 96 | 1012.2 |
| 20260901130859 | 64 | 182 | 0.0 | 3.0 | 0.00 | 0.00 | 0.00 | 96 | 1012.2 |
| 20260901130357 | 63 | 182 | 0.0 | 3.0 | 0.00 | 0.00 | 0.00 | 95 | 1012.2 |
| 20260901125840 | 63 | 182 | 0.0 | 3.0 | 0.00 | 0.00 | 0.00 | 95 | 1012.2 |
| 20260901125338 | 63 | 182 | 0.0 | 2.0 | 0.00 | 0.00 | 0.00 | 95 | 1012.1 |
| 20260901125103 | 62 | 182 | 0.0 | 2.0 | 0.00 | 0.00 | 0.00 | 95 | 1012.2 |
| 20260901124327 | 62 | 182 | 0.0 | 2.0 | 0.00 | 0.00 | 0.00 | 95 | 1012.1 |
| 20260901124048 | 62 | 182 | 1.0 | 3.0 | 0.00 | 0.00 | 0.00 | 94 | 1012.1 |
| 20260901123311 | 62 | 182 | 1.0 | 3.0 | 0.00 | 0.00 | 0.00 | 94 | 1012.0 |
| 20260901122811 | 62 | 182 | 1.0 | 3.0 | 0.00 | 0.00 | 0.00 | 94 | 1012.0 |
| 20260901122308 | 62 | 182 | 0.0 | 3.0 | 0.00 | 0.00 | 0.00 | 94 | 1012.0 |
| 20260901121807 | 61 | 290 | 0.0 | 0.0 | 0.00 | 0.00 | 0.00 | 94 | 1012.0 |
| 20260901121245 | 61 | 290 | 0.0 | 0.0 | 0.00 | 0.00 | 0.00 | 94 | 1012.0 |
| 20260901120823 | 61 | 290 | 0.0 | 0.0 | 0.00 | 0.00 | 0.00 | 94 | 1012.0 |
| 20260901115728 | 62 | 290 | 0.0 | 0.0 | 0.00 | 0.00 | 0.00 | 94 | 1011.9 |
| 20260901115230 | 62 | 290 | 0.0 | 0.0 | 0.00 | 0.00 | 0.00 | 94 | 1011.7 |
| 20260901114917 | 62 | 290 | 0.0 | 0.0 | 0.00 | 0.00 | 0.00 | 94 | 1011.7 |
| 20260901114417 | 62 | 290 | 0.0 | 0.0 | 0.00 | 0.00 | 0.00 | 94 | 1011.7 |
| 20260901113638 | 62 | 290 | 0.0 | 0.0 | 0.00 | 0.00 | 0.00 | 94 | 1011.5 |
| 20260901113358 | 62 | 290 | 0.0 | 0.0 | 0.00 | 0.00 | 0.00 | 94 | 1011.6 |
| 20260901112603 | 62 | 290 | 0.0 | 0.0 | 0.00 | 0.00 | 0.00 | 94 | 1011.5 |
| 20260901112318 | 62 | 290 | 0.0 | 0.0 | 0.00 | 0.00 | 0.00 | 94 | 1011.5 |
| 20260901111533 | 62 | 290 | 0.0 | 0.0 | 0.00 | 0.00 | 0.00 | 94 | 1011.5 |
| 20260901111256 | 62 | 290 | 0.0 | 0.0 | 0.00 | 0.00 | 0.00 | 94 | 1011.5 |
| 20260901110531 | 62 | 290 | 0.0 | 0.0 | 0.00 | 0.00 | 0.00 | 94 | 1011.3 |
| 20260901110022 | 62 | 290 | 0.0 | 0.0 | 0.00 | 0.00 | 0.00 | 94 | 1011.2 |
| 20260901105515 | 63 | 290 | 0.0 | 0.0 | 0.00 | 0.00 | 0.00 | 94 | 1011.3 |
| 20260901105017 | 63 | 290 | 0.0 | 0.0 | 0.00 | 0.00 | 0.00 | 94 | 1011.3 |
| 20260901104508 | 63 | 290 | 0.0 | 0.0 | 0.00 | 0.00 | 0.00 | 94 | 1011.3 |
| 20260901104012 | 63 | 290 | 0.0 | 1.0 | 0.00 | 0.00 | 0.00 | 94 | 1011.2 |
| 20260901103501 | 63 | 290 | 0.0 | 1.0 | 0.00 | 0.00 | 0.00 | 94 | 1011.1 |
| 20260901102950 | 63 | 290 | 0.0 | 0.0 | 0.00 | 0.00 | 0.00 | 94 | 1011.1 |
| 20260901102448 | 63 | 290 | 0.0 | 1.0 | 0.00 | 0.00 | 0.00 | 94 | 1011.2 |
| 20260901101938 | 63 | 290 | 0.0 | 2.0 | 0.00 | 0.00 | 0.00 | 94 | 1011.2 |
| 20260901101432 | 63 | 290 | 0.0 | 2.0 | 0.00 | 0.00 | 0.00 | 94 | 1011.1 |
| 20260901101154 | 63 | 290 | 0.0 | 2.0 | 0.00 | 0.00 | 0.00 | 94 | 1010.9 |
| 20260901100638 | 63 | 290 | 0.0 | 2.0 | 0.00 | 0.00 | 0.00 | 94 | 1010.8 |
| 20260901100409 | 63 | 290 | 0.0 | 1.0 | 0.00 | 0.00 | 0.00 | 93 | 1010.9 |
| 20260901095411 | 63 | 290 | 0.0 | 1.0 | 0.00 | 0.00 | 0.00 | 93 | 1010.9 |
| 20260901094846 | 63 | 290 | 0.0 | 1.0 | 0.00 | 0.00 | 0.00 | 93 | 1010.8 |
| 20260901094336 | 63 | 290 | 0.0 | 1.0 | 0.00 | 0.00 | 0.00 | 93 | 1010.7 |
| 20260901093819 | 63 | 290 | 0.0 | 1.0 | 0.00 | 0.00 | 0.00 | 93 | 1010.5 |
| 20260901093801 | 63 | 290 | 0.0 | 1.0 | 0.00 | 0.00 | 0.00 | 93 | 1010.6 |
| 20260901092813 | 63 | 290 | 0.0 | 1.0 | 0.00 | 0.00 | 0.00 | 93 | 1010.6 |
| 20260901092306 | 63 | 290 | 0.0 | 0.0 | 0.00 | 0.00 | 0.00 | 93 | 1010.6 |
| 20260901091801 | 63 | 290 | 0.0 | 0.0 | 0.00 | 0.00 | 0.00 | 93 | 1010.6 |
| 20260901091305 | 63 | 290 | 0.0 | 0.0 | 0.00 | 0.00 | 0.00 | 93 | 1010.6 |
| 20260901091015 | 63 | 290 | 0.0 | 0.0 | 0.00 | 0.00 | 0.00 | 93 | 1010.7 |
| 20260901090517 | 63 | 290 | 0.0 | 1.0 | 0.00 | 0.00 | 0.00 | 93 | 1010.7 |
| 20260901085733 | 63 | 290 | 0.0 | 1.0 | 0.00 | 0.00 | 0.00 | 93 | 1010.6 |
| 20260901085219 | 63 | 290 | 0.0 | 1.0 | 0.00 | 0.00 | 0.00 | 93 | 1010.7 |
| 20260901084709 | 63 | 290 | 0.0 | 1.0 | 0.00 | 0.00 | 0.00 | 93 | 1010.7 |
| 20260901084209 | 63 | 290 | 0.0 | 1.0 | 0.00 | 0.00 | 0.00 | 93 | 1010.7 |
| 20260901083702 | 63 | 290 | 0.0 | 1.0 | 0.00 | 0.00 | 0.00 | 92 | 1010.6 |
| 20260901083159 | 63 | 327 | 0.0 | 1.0 | 0.00 | 0.00 | 0.00 | 92 | 1010.6 |
| 20260901083148 | 63 | 327 | 0.0 | 1.0 | 0.00 | 0.00 | 0.00 | 92 | 1010.5 |
| 20260901082146 | 63 | 327 | 0.0 | 0.0 | 0.00 | 0.00 | 0.00 | 92 | 1010.5 |
| 20260901081639 | 64 | 327 | 0.0 | 0.0 | 0.00 | 0.00 | 0.00 | 91 | 1010.6 |
| 20260901081139 | 64 | 327 | 0.0 | 0.0 | 0.00 | 0.00 | 0.00 | 91 | 1010.6 |
| 20260901080635 | 64 | 327 | 0.0 | 0.0 | 0.00 | 0.00 | 0.00 | 91 | 1010.5 |
| 20260901080133 | 64 | 327 | 0.0 | 0.0 | 0.00 | 0.00 | 0.00 | 91 | 1010.6 |
| 20260901075607 | 64 | 327 | 0.0 | 0.0 | 0.00 | 0.00 | 0.00 | 91 | 1010.7 |
| 20260901075101 | 64 | 327 | 0.0 | 0.0 | 0.00 | 0.00 | 0.00 | 91 | 1010.7 |
| 20260901074546 | 64 | 327 | 0.0 | 0.0 | 0.00 | 0.00 | 0.00 | 91 | 1010.7 |
| 20260901074031 | 64 | 327 | 0.0 | 0.0 | 0.00 | 0.00 | 0.00 | 91 | 1010.7 |
| 20260901073529 | 65 | 327 | 0.0 | 0.0 | 0.00 | 0.00 | 0.00 | 91 | 1010.9 |
| 20260901073244 | 65 | 327 | 0.0 | 0.0 | 0.00 | 0.00 | 0.00 | 91 | 1010.9 |
| 20260901072518 | 65 | 327 | 0.0 | 0.0 | 0.00 | 0.00 | 0.00 | 91 | 1010.9 |
| 20260901072233 | 65 | 327 | 0.0 | 0.0 | 0.00 | 0.00 | 0.00 | 91 | 1010.9 |
| 20260901072000 | 65 | 327 | 0.0 | 0.0 | 0.00 | 0.00 | 0.00 | 90 | 1011.1 |
| 20260901070947 | 65 | 327 | 0.0 | 0.0 | 0.00 | 0.00 | 0.00 | 90 | 1011.1 |
| 20260901070436 | 65 | 327 | 0.0 | 0.0 | 0.00 | 0.00 | 0.00 | 90 | 1011.2 |
| 20260901065937 | 66 | 327 | 0.0 | 0.0 | 0.00 | 0.00 | 0.00 | 90 | 1011.1 |
| 20260901065642 | 66 | 327 | 0.0 | 0.0 | 0.00 | 0.00 | 0.00 | 90 | 1011.2 |
| 20260901064919 | 66 | 327 | 0.0 | 0.0 | 0.00 | 0.00 | 0.00 | 90 | 1011.1 |
| 20260901064421 | 66 | 327 | 0.0 | 0.0 | 0.00 | 0.00 | 0.00 | 90 | 1011.2 |
| 20260901064401 | 66 | 327 | 0.0 | 0.0 | 0.00 | 0.00 | 0.00 | 90 | 1011.3 |
| 20260901063410 | 66 | 327 | 0.0 | 0.0 | 0.00 | 0.00 | 0.00 | 90 | 1011.3 |
| 20260901062905 | 66 | 327 | 0.0 | 0.0 | 0.00 | 0.00 | 0.00 | 89 | 1011.3 |
| 20260901062627 | 67 | 327 | 0.0 | 0.0 | 0.00 | 0.00 | 0.00 | 89 | 1011.1 |
| 20260901061840 | 67 | 327 | 0.0 | 0.0 | 0.00 | 0.00 | 0.00 | 90 | 1011.1 |
| 20260901061556 | 67 | 327 | 0.0 | 0.0 | 0.00 | 0.00 | 0.00 | 90 | 1011.1 |
| 20260901060830 | 67 | 327 | 0.0 | 0.0 | 0.00 | 0.00 | 0.00 | 89 | 1011.1 |
| 20260901060543 | 67 | 327 | 0.0 | 0.0 | 0.00 | 0.00 | 0.00 | 89 | 1011.1 |
| 20260901055803 | 67 | 327 | 0.0 | 0.0 | 0.00 | 0.00 | 0.00 | 89 | 1011.1 |
| 20260901055257 | 67 | 327 | 0.0 | 0.0 | 0.00 | 0.00 | 0.00 | 89 | 1011.1 |
| 20260901055238 | 67 | 327 | 0.0 | 0.0 | 0.00 | 0.00 | 0.00 | 89 | 1011.1 |
| 20260901054240 | 67 | 327 | 0.0 | 0.0 | 0.00 | 0.00 | 0.00 | 89 | 1011.1 |
| 20260901053716 | 67 | 327 | 0.0 | 0.0 | 0.00 | 0.00 | 0.00 | 89 | 1011.0 |
| 20260901053153 | 68 | 327 | 0.0 | 0.0 | 0.00 | 0.00 | 0.00 | 89 | 1011.0 |
| 20260901052648 | 68 | 327 | 0.0 | 0.0 | 0.00 | 0.00 | 0.00 | 89 | 1010.9 |
| 20260901052144 | 68 | 327 | 0.0 | 0.0 | 0.00 | 0.00 | 0.00 | 88 | 1011.0 |
| 20260901051904 | 68 | 327 | 0.0 | 0.0 | 0.00 | 0.00 | 0.00 | 88 | 1010.9 |
| 20260901051127 | 68 | 327 | 0.0 | 0.0 | 0.00 | 0.00 | 0.00 | 88 | 1010.8 |
| 20260901050624 | 68 | 327 | 0.0 | 0.0 | 0.00 | 0.00 | 0.00 | 88 | 1010.9 |
| 20260901050333 | 68 | 327 | 0.0 | 0.0 | 0.00 | 0.00 | 0.00 | 87 | 1010.8 |
| 20260901045610 | 69 | 327 | 0.0 | 0.0 | 0.00 | 0.00 | 0.00 | 87 | 1010.8 |
| 20260901045112 | 69 | 327 | 0.0 | 0.0 | 0.00 | 0.00 | 0.00 | 86 | 1010.8 |
| 20260901044557 | 69 | 327 | 0.0 | 0.0 | 0.00 | 0.00 | 0.00 | 86 | 1010.7 |
| 20260901044051 | 69 | 327 | 0.0 | 0.0 | 0.00 | 0.00 | 0.00 | 85 | 1010.7 |
| 20260901043552 | 69 | 327 | 0.0 | 0.0 | 0.00 | 0.00 | 0.00 | 85 | 1010.6 |
| 20260901043049 | 70 | 327 | 0.0 | 0.0 | 0.00 | 0.00 | 0.00 | 85 | 1010.5 |
| 20260901042541 | 70 | 327 | 0.0 | 0.0 | 0.00 | 0.00 | 0.00 | 85 | 1010.5 |
| 20260901042027 | 70 | 327 | 0.0 | 0.0 | 0.00 | 0.00 | 0.00 | 84 | 1010.5 |
| 20260901041524 | 70 | 327 | 0.0 | 0.0 | 0.00 | 0.00 | 0.00 | 84 | 1010.4 |
| 20260901041016 | 71 | 327 | 0.0 | 0.0 | 0.00 | 0.00 | 0.00 | 84 | 1010.5 |
| 20260901040501 | 71 | 327 | 0.0 | 0.0 | 0.00 | 0.00 | 0.00 | 84 | 1010.5 |
| 20260901035954 | 71 | 327 | 0.0 | 0.0 | 0.00 | 0.00 | 0.00 | 84 | 1010.5 |
| 20260901035445 | 71 | 327 | 0.0 | 0.0 | 0.00 | 0.00 | 0.00 | 83 | 1010.5 |
| 20260901034927 | 71 | 327 | 0.0 | 0.0 | 0.00 | 0.00 | 0.00 | 83 | 1010.5 |
| 20260901034913 | 71 | 327 | 0.0 | 0.0 | 0.00 | 0.00 | 0.00 | 83 | 1010.6 |
| 20260901034150 | 72 | 327 | 0.0 | 0.0 | 0.00 | 0.00 | 0.00 | 83 | 1010.6 |
| 20260901033415 | 72 | 327 | 0.0 | 0.0 | 0.00 | 0.00 | 0.00 | 82 | 1010.6 |
| 20260901032913 | 72 | 327 | 0.0 | 0.0 | 0.00 | 0.00 | 0.00 | 82 | 1010.5 |
| 20260901032413 | 72 | 327 | 0.0 | 0.0 | 0.00 | 0.00 | 0.00 | 82 | 1010.5 |
| 20260901031906 | 72 | 327 | 0.0 | 0.0 | 0.00 | 0.00 | 0.00 | 82 | 1010.4 |
| 20260901031343 | 72 | 327 | 0.0 | 0.0 | 0.00 | 0.00 | 0.00 | 81 | 1010.4 |
| 20260901030840 | 73 | 327 | 0.0 | 0.0 | 0.00 | 0.00 | 0.00 | 81 | 1010.4 |
| 20260901030542 | 73 | 327 | 0.0 | 0.0 | 0.00 | 0.00 | 0.00 | 81 | 1010.3 |
| 20260901025826 | 73 | 327 | 0.0 | 1.0 | 0.00 | 0.00 | 0.00 | 82 | 1010.3 |
| 20260901025542 | 73 | 327 | 0.0 | 1.0 | 0.00 | 0.00 | 0.00 | 82 | 1010.3 |
| 20260901024812 | 73 | 327 | 0.0 | 1.0 | 0.00 | 0.00 | 0.00 | 80 | 1010.3 |
| 20260901024309 | 73 | 327 | 0.0 | 1.0 | 0.00 | 0.00 | 0.00 | 80 | 1010.3 |
| 20260901023811 | 74 | 327 | 0.0 | 1.0 | 0.00 | 0.00 | 0.00 | 79 | 1010.2 |
| 20260901023306 | 74 | 327 | 0.0 | 1.0 | 0.00 | 0.00 | 0.00 | 80 | 1010.1 |
| 20260901022801 | 74 | 327 | 0.0 | 1.0 | 0.00 | 0.00 | 0.00 | 77 | 1010.0 |
| 20260901022249 | 74 | 326 | 0.0 | 1.0 | 0.00 | 0.00 | 0.00 | 77 | 1010.1 |
| 20260901022005 | 74 | 327 | 0.0 | 1.0 | 0.00 | 0.00 | 0.00 | 77 | 1010.1 |
| 20260901021224 | 75 | 327 | 0.0 | 1.0 | 0.00 | 0.00 | 0.00 | 76 | 1010.0 |
| 20260901020939 | 75 | 327 | 0.0 | 1.0 | 0.00 | 0.00 | 0.00 | 76 | 1010.1 |
| 20260901020221 | 75 | 327 | 0.0 | 0.0 | 0.00 | 0.00 | 0.00 | 76 | 1010.0 |
| 20260901015654 | 75 | 327 | 0.0 | 0.0 | 0.00 | 0.00 | 0.00 | 76 | 1009.9 |
| 20260901015139 | 76 | 327 | 0.0 | 1.0 | 0.00 | 0.00 | 0.00 | 76 | 1009.9 |
| 20260901014632 | 76 | 327 | 0.0 | 1.0 | 0.00 | 0.00 | 0.00 | 74 | 1009.9 |
| 20260901014105 | 76 | 327 | 0.0 | 1.0 | 0.00 | 0.00 | 0.00 | 76 | 1009.7 |
| 20260901013558 | 77 | 327 | 0.0 | 1.0 | 0.00 | 0.00 | 0.00 | 74 | 1009.7 |
| 20260901013050 | 77 | 327 | 0.0 | 0.0 | 0.00 | 0.00 | 0.00 | 74 | 1009.6 |
| 20260901012550 | 77 | 327 | 0.0 | 0.0 | 0.00 | 0.00 | 0.00 | 72 | 1009.6 |
| 20260901012249 | 78 | 327 | 0.0 | 0.0 | 0.00 | 0.00 | 0.00 | 71 | 1009.6 |
| 20260901011524 | 78 | 327 | 0.0 | 0.0 | 0.00 | 0.00 | 0.00 | 70 | 1009.6 |
| 20260901011235 | 79 | 327 | 0.0 | 0.0 | 0.00 | 0.00 | 0.00 | 68 | 1009.5 |
| 20260901010512 | 79 | 327 | 0.0 | 0.0 | 0.00 | 0.00 | 0.00 | 68 | 1009.5 |
| 20260901010012 | 80 | 327 | 0.0 | 0.0 | 0.00 | 0.00 | 0.00 | 67 | 1009.5 |
| 20260901005454 | 80 | 327 | 0.0 | 1.0 | 0.00 | 0.00 | 0.00 | 68 | 1009.5 |
| 20260901004951 | 80 | 327 | 0.0 | 1.0 | 0.00 | 0.00 | 0.00 | 70 | 1009.5 |
| 20260901004446 | 81 | 327 | 0.0 | 1.0 | 0.00 | 0.00 | 0.00 | 67 | 1009.4 |
| 20260901004152 | 81 | 327 | 0.0 | 1.0 | 0.00 | 0.00 | 0.00 | 66 | 1009.4 |
| 20260901003432 | 82 | 327 | 0.0 | 1.0 | 0.00 | 0.00 | 0.00 | 66 | 1009.4 |
| 20260901003151 | 82 | 327 | 0.0 | 1.0 | 0.00 | 0.00 | 0.00 | 64 | 1009.3 |
| 20260901002422 | 83 | 327 | 0.0 | 2.0 | 0.00 | 0.00 | 0.00 | 63 | 1009.3 |
| 20260901001916 | 83 | 315 | 0.0 | 2.0 | 0.00 | 0.00 | 0.00 | 66 | 1009.3 |
| 20260901001410 | 83 | 314 | 0.0 | 2.0 | 0.00 | 0.00 | 0.00 | 60 | 1009.3 |
| 20260901000854 | 84 | 314 | 0.0 | 2.0 | 0.00 | 0.00 | 0.00 | 60 | 1009.3 |
| 20260901000343 | 84 | 315 | 0.0 | 0.0 | 0.00 | 0.00 | 0.00 | 59 | 1009.3 |
| 20260831235835 | 84 | 315 | 0.0 | 0.0 | 0.00 | 0.00 | 0.00 | 57 | 1009.2 |
| 20260831235555 | 85 | 315 | 0.0 | 1.0 | 0.00 | 0.00 | 0.00 | 57 | 1009.3 |
| 20260831234822 | 85 | 315 | 0.0 | 2.0 | 0.00 | 0.00 | 0.00 | 60 | 1009.2 |
| 20260831234538 | 85 | 315 | 1.0 | 2.0 | 0.00 | 0.00 | 0.00 | 58 | 1009.2 |
| 20260831233812 | 86 | 315 | 1.0 | 2.0 | 0.00 | 0.00 | 0.00 | 59 | 1009.2 |
| 20260831233310 | 86 | 313 | 1.0 | 3.0 | 0.00 | 0.00 | 0.00 | 57 | 1009.1 |
| 20260831232809 | 86 | 325 | 1.0 | 3.0 | 0.00 | 0.00 | 0.00 | 57 | 1009.3 |
| 20260831232310 | 87 | 325 | 1.0 | 2.0 | 0.00 | 0.00 | 0.00 | 58 | 1009.3 |
| 20260831231809 | 87 | 326 | 1.0 | 2.0 | 0.00 | 0.00 | 0.00 | 57 | 1009.2 |
| 20260831231307 | 87 | 323 | 1.0 | 3.0 | 0.00 | 0.00 | 0.00 | 54 | 1009.3 |
| 20260831230805 | 87 | 302 | 1.0 | 3.0 | 0.00 | 0.00 | 0.00 | 53 | 1009.2 |
| 20260831230530 | 88 | 304 | 0.0 | 3.0 | 0.00 | 0.00 | 0.00 | 54 | 1009.1 |
| 20260831225803 | 88 | 286 | 1.0 | 5.0 | 0.00 | 0.00 | 0.00 | 47 | 1009.2 |
| 20260831225306 | 88 | 303 | 1.0 | 5.0 | 0.00 | 0.00 | 0.00 | 48 | 1009.1 |
| 20260831225024 | 89 | 311 | 1.0 | 5.0 | 0.00 | 0.00 | 0.00 | 46 | 1009.1 |
| 20260831224256 | 89 | 300 | 1.0 | 6.0 | 0.00 | 0.00 | 0.00 | 46 | 1009.1 |
| 20260831223758 | 89 | 351 | 1.0 | 6.0 | 0.00 | 0.00 | 0.00 | 47 | 1009.1 |
| 20260831223244 | 89 | 335 | 1.0 | 6.0 | 0.00 | 0.00 | 0.00 | 44 | 1009.1 |
| 20260831223009 | 90 | 0 | 1.0 | 5.0 | 0.00 | 0.00 | 0.00 | 46 | 1009.1 |
| 20260831222243 | 91 | 292 | 2.0 | 9.0 | 0.00 | 0.00 | 0.00 | 44 | 1009.1 |
| 20260831221736 | 92 | 288 | 2.0 | 9.0 | 0.00 | 0.00 | 0.00 | 43 | 1009.1 |
| 20260831221237 | 92 | 306 | 1.0 | 8.0 | 0.00 | 0.00 | 0.00 | 44 | 1009.0 |
| 20260831220953 | 92 | 294 | 1.0 | 8.0 | 0.00 | 0.00 | 0.00 | 44 | 1008.8 |
| 20260831220458 | 92 | 314 | 2.0 | 8.0 | 0.00 | 0.00 | 0.00 | 43 | 1008.8 |
| 20260831220214 | 92 | 349 | 2.0 | 8.0 | 0.00 | 0.00 | 0.00 | 46 | 1008.9 |
| 20260831215229 | 92 | 342 | 1.0 | 9.0 | 0.00 | 0.00 | 0.00 | 48 | 1008.8 |
| 20260831214725 | 91 | 318 | 1.0 | 9.0 | 0.00 | 0.00 | 0.00 | 47 | 1008.9 |
| 20260831214705 | 91 | 328 | 2.0 | 9.0 | 0.00 | 0.00 | 0.00 | 46 | 1008.8 |
| 20260831213709 | 91 | 349 | 2.0 | 9.0 | 0.00 | 0.00 | 0.00 | 46 | 1008.8 |
| 20260831213212 | 92 | 340 | 2.0 | 6.0 | 0.00 | 0.00 | 0.00 | 44 | 1008.7 |
| 20260831212647 | 92 | 327 | 2.0 | 5.0 | 0.00 | 0.00 | 0.00 | 47 | 1008.7 |
| 20260831212409 | 92 | 309 | 1.0 | 3.0 | 0.00 | 0.00 | 0.00 | 46 | 1008.7 |
| 20260831211647 | 91 | 19 | 0.0 | 3.0 | 0.00 | 0.00 | 0.00 | 47 | 1008.7 |
| 20260831211139 | 91 | 306 | 1.0 | 8.0 | 0.00 | 0.00 | 0.00 | 48 | 1008.6 |
| 20260831210636 | 91 | 331 | 2.0 | 8.0 | 0.00 | 0.00 | 0.00 | 51 | 1008.7 |
| 20260831210624 | 91 | 320 | 2.0 | 8.0 | 0.00 | 0.00 | 0.00 | 50 | 1008.7 |
| 20260831205604 | 91 | 329 | 2.0 | 8.0 | 0.00 | 0.00 | 0.00 | 46 | 1008.7 |
| 20260831205106 | 91 | 22 | 2.0 | 5.0 | 0.00 | 0.00 | 0.00 | 49 | 1008.7 |
| 20260831204604 | 91 | 325 | 2.0 | 9.0 | 0.00 | 0.00 | 0.00 | 51 | 1008.8 |
| 20260831204100 | 91 | 333 | 2.0 | 9.0 | 0.00 | 0.00 | 0.00 | 46 | 1008.8 |
| 20260831203818 | 92 | 331 | 1.0 | 7.0 | 0.00 | 0.00 | 0.00 | 48 | 1008.8 |
| 20260831203313 | 91 | 257 | 2.0 | 5.0 | 0.00 | 0.00 | 0.00 | 48 | 1008.8 |
| 20260831202553 | 91 | 344 | 2.0 | 5.0 | 0.00 | 0.00 | 0.00 | 44 | 1008.7 |
| 20260831202050 | 92 | 244 | 2.0 | 8.0 | 0.00 | 0.00 | 0.00 | 44 | 1008.8 |
| 20260831201548 | 91 | 333 | 2.0 | 8.0 | 0.00 | 0.00 | 0.00 | 47 | 1008.6 |
| 20260831201045 | 91 | 313 | 2.0 | 9.0 | 0.00 | 0.00 | 0.00 | 46 | 1008.7 |
| 20260831200545 | 91 | 323 | 3.0 | 9.0 | 0.00 | 0.00 | 0.00 | 48 | 1008.6 |
| 20260831200040 | 91 | 0 | 2.0 | 7.0 | 0.00 | 0.00 | 0.00 | 46 | 1008.6 |
| 20260831195805 | 90 | 336 | 2.0 | 9.0 | 0.00 | 0.00 | 0.00 | 46 | 1008.5 |
| 20260831195036 | 91 | 268 | 2.0 | 9.0 | 0.00 | 0.00 | 0.00 | 50 | 1008.5 |
| 20260831194534 | 90 | 301 | 1.0 | 5.0 | 0.00 | 0.00 | 0.00 | 50 | 1008.5 |
| 20260831194307 | 90 | 169 | 2.0 | 6.0 | 0.00 | 0.00 | 0.00 | 47 | 1008.4 |
| 20260831193536 | 90 | 18 | 1.0 | 6.0 | 0.00 | 0.00 | 0.00 | 51 | 1008.4 |
| 20260831193028 | 89 | 326 | 2.0 | 6.0 | 0.00 | 0.00 | 0.00 | 54 | 1008.5 |
| 20260831192751 | 89 | 336 | 2.0 | 8.0 | 0.00 | 0.00 | 0.00 | 53 | 1008.5 |
| 20260831192024 | 89 | 327 | 2.0 | 8.0 | 0.00 | 0.00 | 0.00 | 55 | 1008.6 |
| 20260831191521 | 89 | 248 | 2.0 | 5.0 | 0.00 | 0.00 | 0.00 | 55 | 1008.6 |
| 20260831191017 | 89 | 273 | 2.0 | 10.0 | 0.00 | 0.00 | 0.00 | 58 | 1008.6 |
| 20260831190515 | 89 | 286 | 2.0 | 10.0 | 0.00 | 0.00 | 0.00 | 61 | 1008.7 |
| 20260831190015 | 89 | 307 | 1.0 | 4.0 | 0.00 | 0.00 | 0.00 | 57 | 1008.6 |
| 20260831185514 | 88 | 252 | 2.0 | 8.0 | 0.00 | 0.00 | 0.00 | 60 | 1008.5 |
| 20260831185015 | 88 | 299 | 3.0 | 9.0 | 0.00 | 0.00 | 0.00 | 63 | 1008.5 |
| 20260831184515 | 88 | 31 | 2.0 | 9.0 | 0.00 | 0.00 | 0.00 | 61 | 1008.5 |
| 20260831184015 | 87 | 325 | 2.0 | 6.0 | 0.00 | 0.00 | 0.00 | 67 | 1008.5 |
| 20260831183512 | 87 | 317 | 2.0 | 6.0 | 0.00 | 0.00 | 0.00 | 66 | 1008.5 |
| 20260831183012 | 86 | 337 | 1.0 | 6.0 | 0.00 | 0.00 | 0.00 | 70 | 1008.5 |
| 20260831182513 | 86 | 246 | 1.0 | 6.0 | 0.00 | 0.00 | 0.00 | 68 | 1008.5 |
| 20260831182013 | 85 | 259 | 2.0 | 7.0 | 0.00 | 0.00 | 0.00 | 69 | 1008.5 |
| 20260831181510 | 85 | 270 | 2.0 | 7.0 | 0.00 | 0.00 | 0.00 | 74 | 1008.6 |
| 20260831180959 | 84 | 212 | 2.0 | 6.0 | 0.00 | 0.00 | 0.00 | 72 | 1008.6 |
| 20260831180458 | 84 | 333 | 2.0 | 6.0 | 0.00 | 0.00 | 0.00 | 72 | 1008.7 |
| 20260831175953 | 83 | 346 | 2.0 | 6.0 | 0.00 | 0.00 | 0.00 | 77 | 1008.7 |
| 20260831175717 | 83 | 311 | 2.0 | 6.0 | 0.00 | 0.00 | 0.00 | 77 | 1008.7 |
| 20260831174942 | 82 | 300 | 2.0 | 4.0 | 0.00 | 0.00 | 0.00 | 78 | 1008.7 |
| 20260831174441 | 81 | 334 | 2.0 | 4.0 | 0.00 | 0.00 | 0.00 | 78 | 1008.8 |
| 20260831173937 | 81 | 315 | 1.0 | 4.0 | 0.00 | 0.00 | 0.00 | 81 | 1008.8 |
| 20260831173438 | 80 | 331 | 1.0 | 6.0 | 0.00 | 0.00 | 0.00 | 81 | 1008.9 |
| 20260831172935 | 79 | 330 | 1.0 | 6.0 | 0.00 | 0.00 | 0.00 | 84 | 1008.9 |
| 20260831172431 | 79 | 313 | 2.0 | 6.0 | 0.00 | 0.00 | 0.00 | 84 | 1008.9 |
| 20260831171928 | 78 | 317 | 2.0 | 6.0 | 0.00 | 0.00 | 0.00 | 86 | 1008.9 |
| 20260831171426 | 78 | 325 | 2.0 | 6.0 | 0.00 | 0.00 | 0.00 | 85 | 1009.0 |
| 20260831170928 | 78 | 330 | 2.0 | 6.0 | 0.00 | 0.00 | 0.00 | 86 | 1008.9 |
| 20260831170423 | 78 | 344 | 2.0 | 6.0 | 0.00 | 0.00 | 0.00 | 86 | 1009.0 |
| 20260831165917 | 78 | 295 | 1.0 | 6.0 | 0.00 | 0.00 | 0.00 | 86 | 1008.9 |
| 20260831165418 | 78 | 340 | 2.0 | 6.0 | 0.00 | 0.00 | 0.00 | 87 | 1009.0 |
| 20260831164912 | 78 | 19 | 3.0 | 6.0 | 0.00 | 0.00 | 0.00 | 87 | 1009.0 |
| 20260831164514 | 77 | 349 | 2.0 | 5.0 | 0.00 | 0.00 | 0.00 | 88 | 1009.0 |
| 20260831163400 | 77 | 317 | 1.0 | 4.0 | 0.00 | 0.00 | 0.00 | 88 | 1008.9 |
| 20260831162901 | 77 | 329 | 2.0 | 6.0 | 0.00 | 0.00 | 0.00 | 89 | 1009.0 |
| 20260831162625 | 77 | 329 | 2.0 | 6.0 | 0.00 | 0.00 | 0.00 | 90 | 1008.9 |
| 20260831162110 | 77 | 330 | 3.0 | 8.0 | 0.00 | 0.00 | 0.00 | 91 | 1008.9 |
| 20260831161345 | 77 | 332 | 3.0 | 8.0 | 0.00 | 0.00 | 0.00 | 92 | 1009.0 |
| 20260831160845 | 77 | 31 | 3.0 | 9.0 | 0.00 | 0.00 | 0.00 | 92 | 1008.8 |
| 20260831160335 | 77 | 0 | 3.0 | 10.0 | 0.00 | 0.00 | 0.00 | 93 | 1008.9 |
| 20260831155829 | 77 | 307 | 3.0 | 10.0 | 0.00 | 0.00 | 0.00 | 94 | 1008.8 |
| 20260831155329 | 77 | 341 | 3.0 | 10.0 | 0.00 | 0.00 | 0.00 | 94 | 1008.7 |
| 20260831154826 | 77 | 311 | 3.0 | 10.0 | 0.00 | 0.00 | 0.00 | 95 | 1008.6 |
| 20260831154549 | 76 | 9 | 2.0 | 8.0 | 0.00 | 0.00 | 0.00 | 95 | 1008.5 |
| 20260831153813 | 76 | 34 | 3.0 | 8.0 | 0.00 | 0.00 | 0.00 | 95 | 1008.3 |
| 20260831153316 | 76 | 329 | 3.0 | 8.0 | 0.00 | 0.00 | 0.00 | 95 | 1008.2 |
| 20260831152812 | 76 | 340 | 4.0 | 8.0 | 0.00 | 0.00 | 0.00 | 95 | 1008.3 |
| 20260831152308 | 76 | 342 | 4.0 | 11.0 | 0.00 | 0.00 | 0.00 | 95 | 1008.2 |
| 20260831151805 | 76 | 273 | 3.0 | 11.0 | 0.00 | 0.00 | 0.00 | 95 | 1008.2 |
| 20260831151303 | 76 | 336 | 3.0 | 8.0 | 0.00 | 0.00 | 0.00 | 96 | 1008.0 |
| 20260831151258 | 76 | 265 | 2.0 | 8.0 | 0.00 | 0.00 | 0.00 | 96 | 1008.0 |